Flag for Senegal Weather past 2 weeks in Dakar, Senegal

Now
73 °F

Sunny.


Feels Like: 75 °F
Forecast: 67 / 74 °F
Wind: 15 mph from North

Location: Dakar / Yoff

Current Time: Apr 21, 2015 at 1:45:50 PM

Latest Report: Apr 21, 2015 at 1:00 PM


Visibility: 10 mi

Pressure: 29.92 "Hg

Humidity: 74%

Dew point: 64 °F

Location of DakarLocation

Historic Weather in Dakar — Graph

°F

Dakar temperature yesterday

Maximum temperature yesterday: 73 °F (at 11:30 AM)
Minimum temperature yesterday: 66 °F (at 12:30 AM)
Average temperature yesterday: 69 °F

Past Weeks' High & Low Weather Summary

 TemperatureHumidityPressure
High79 °F (Apr 11, 1:00 PM)100% (Apr 7, 5:30 AM)29.98 "Hg (Apr 7, 5:30 AM)
Low64 °F (Apr 7, 5:30 AM)54% (Apr 11, 1:00 PM)29.77 "Hg (Apr 11, 3:30 PM)
Average69 °F82%29.87 "Hg
* Reported Apr 6 12:00 Noon — Apr 21 12:30 PM, Dakar, Weather by CustomWeather, © 2015

Note: Actual official high and low records may vary slightly from our data, if they occured in-between our weather recording intervals... More about our weather records

Advertising

Dakar weather history for previous 24 hours

 ConditionsComfort  
Time TempWeatherWind HumidityBarometerVisibility
12:30 PM
Tue, Apr 21
73 °FPassing clouds.15 mph74%29.92 "HgN/A
12:00 PM73 °FSunny.14 mph74%29.92 "Hg10 mi
11:30 AM73 °FSunny.13 mph74%29.92 "Hg10 mi
11:00 AM72 °FSunny.14 mph78%29.92 "Hg10 mi
10:30 AM72 °FSunny.14 mph78%29.92 "Hg10 mi
10:00 AM72 °FClear.12 mph78%29.92 "Hg5 mi
9:30 AM70 °FClear.12 mph83%29.89 "Hg5 mi
9:00 AM68 °FClear.12 mph88%29.89 "Hg5 mi
8:30 AM68 °FClear.10 mph88%29.89 "Hg5 mi
8:00 AM68 °FClear.8 mph88%29.89 "Hg5 mi
7:30 AM66 °FClear.7 mph94%29.86 "Hg5 mi
7:00 AM66 °FClear.9 mph94%29.86 "Hg5 mi
6:30 AM66 °FPassing clouds.8 mph94%29.86 "HgN/A
6:00 AM66 °FPassing clouds.8 mph94%29.83 "HgN/A
5:30 AM66 °FPassing clouds.7 mph94%29.83 "HgN/A
5:00 AM66 °FPassing clouds.7 mph94%29.83 "HgN/A
4:30 AM66 °FPassing clouds.8 mph94%29.83 "HgN/A
4:00 AM66 °FPassing clouds.9 mph94%29.83 "HgN/A
3:30 AM66 °FPassing clouds.8 mph94%29.83 "HgN/A
3:00 AM66 °FPassing clouds.13 mph94%29.83 "HgN/A
2:30 AM66 °FPassing clouds.14 mph94%29.83 "HgN/A
2:00 AM66 °FPassing clouds.13 mph94%29.83 "HgN/A
1:30 AM66 °FPassing clouds.13 mph94%29.83 "HgN/A
1:00 AM66 °FPassing clouds.12 mph94%29.83 "HgN/A
12:30 AM66 °FPassing clouds.12 mph94%29.86 "HgN/A
12:00 AM66 °FPassing clouds.12 mph94%29.86 "HgN/A
11:30 PM
Mon, Apr 20
68 °FPassing clouds.14 mph88%29.86 "HgN/A
11:00 PM68 °FPassing clouds.14 mph88%29.86 "HgN/A
10:30 PM68 °FPassing clouds.14 mph88%29.86 "HgN/A
10:00 PM68 °FPassing clouds.13 mph88%29.86 "HgN/A
9:30 PM68 °FPassing clouds.12 mph88%29.86 "HgN/A
9:00 PM68 °FPassing clouds.12 mph88%29.83 "HgN/A
8:30 PM68 °FPassing clouds.12 mph88%29.83 "HgN/A
8:00 PM68 °FClear.13 mph88%29.83 "Hg10 mi
7:30 PM68 °FPassing clouds.12 mph88%29.83 "HgN/A
7:00 PM70 °FPassing clouds.14 mph83%29.83 "HgN/A
6:30 PM70 °FPassing clouds.13 mph83%29.83 "HgN/A
6:00 PM72 °FPassing clouds.13 mph78%29.80 "HgN/A
5:30 PM72 °FPassing clouds.15 mph78%29.83 "HgN/A
5:00 PM73 °FPassing clouds.13 mph74%29.83 "HgN/A
4:30 PM73 °FPassing clouds.12 mph74%29.83 "HgN/A
4:00 PM73 °FPassing clouds.14 mph74%29.83 "HgN/A
3:30 PM73 °FPassing clouds.12 mph74%29.83 "HgN/A
3:00 PM73 °FSunny.14 mph74%29.83 "Hg10 mi
2:30 PM73 °FPassing clouds.15 mph74%29.86 "HgN/A
2:00 PM73 °FPassing clouds.13 mph74%29.86 "HgN/A
1:30 PM73 °FPassing clouds.12 mph74%29.89 "HgN/A
1:00 PM73 °FPassing clouds.13 mph74%29.89 "HgN/A
Weather by CustomWeather, © 2015

See weather overviewHow to use our weather pages